Wind_Speed
51 49 46 51 58 61 62 59 69 77 77 73 68 66 66 65 62 63 58 45 43 41 39 37 33 33 31 27 23 25 23 21 21 23 29 29 34 31 22 26 24 24 23 20 19
42 42 40 46 54 57 61 64 63 65 76 78 72 67 67 69 67 64 56 51 47 44 39 38 36 36 34 30 25 25 24 22 23 24 27 30 34 28 18 19 24 24 21 19 17
43 43 35 37 52 59 57 61 66 64 65 78 77 72 69 70 71 61 56 53 51 47 43 42 41 39 36 30 23 23 26 24 25 26 25 32 29 25 19 22 26 26 21 21 18
44 43 29 36 40 45 46 53 58 63 64 70 80 77 72 69 67 64 60 56 54 50 47 45 45 38 29 26 26 24 27 25 26 26 25 31 26 25 22 21 26 19 17 19 20
44 40 25 23 25 27 38 44 48 55 58 67 75 81 78 65 63 64 62 57 59 54 49 46 44 35 30 28 30 23 26 28 27 26 24 29 27 22 20 18 21 16 16 18 20
43 35 29 23 22 23 26 33 36 42 56 61 71 79 79 67 64 62 61 60 60 53 49 48 39 35 33 31 32 23 27 28 26 28 24 29 28 25 22 26 22 19 21 23 24
39 37 30 23 14 15 18 26 26 32 44 61 68 75 80 68 70 63 60 61 60 51 48 37 39 40 33 33 32 26 24 30 26 29 25 30 26 28 27 23 21 22 23 27 28
35 36 28 19 19 12 11 11 19 29 42 50 62 72 78 73 74 63 63 60 59 52 47 41 43 39 36 37 32 27 26 29 29 27 25 27 27 28 27 25 24 27 31 29 28
37 32 30 17 16 5 11 4 8 18 32 38 51 69 71 83 74 64 63 60 55 51 46 47 43 42 39 38 32 29 25 28 29 27 24 24 29 27 26 26 25 27 29 32 30
33 31 25 19 12 4 3 3 7 10 21 31 36 66 71 73 72 66 60 61 56 50 50 48 40 43 42 40 33 24 29 30 28 26 24 24 24 27 26 22 23 23 23 24 23
34 31 25 20 10 11 7 5 1 10 18 25 38 53 60 70 74 67 64 60 58 56 52 49 50 47 39 33 27 34 29 30 27 26 26 28 27 27 29 22 23 21 22 22 21
28 23 29 18 18 15 14 11 6 11 13 21 29 41 56 68 71 70 66 62 60 56 54 51 47 41 33 32 32 35 32 27 27 26 26 28 29 26 24 21 20 19 19 19 19
21 21 25 30 31 29 20 9 10 12 11 22 30 43 56 67 66 67 65 63 58 57 52 51 43 39 36 35 37 35 32 28 27 25 26 31 26 22 21 22 16 16 18 17 17
24 28 26 35 33 28 26 26 20 17 10 36 40 34 49 49 54 61 60 59 61 57 55 52 44 50 45 39 39 31 29 30 28 26 29 30 25 23 23 20 16 17 19 18 19
22 28 29 36 29 18 22 26 25 23 22 31 37 39 34 40 54 52 47 54 57 58 57 55 55 51 47 36 31 25 28 29 28 25 28 28 24 22 20 19 18 19 21 22 23
20 22 28 35 32 16 19 18 15 11 14 19 27 33 39 36 50 48 44 52 51 52 56 55 51 48 43 37 31 28 28 30 28 27 29 29 26 19 19 20 21 23 25 26 27
12 21 23 30 35 20 13 14 16 23 24 22 32 38 39 39 52 50 53 43 47 55 52 53 47 51 46 36 33 30 32 33 31 30 29 30 29 23 23 23 24 27 28 28 27
11 12 22 24 33 13 11 11 23 32 30 29 29 27 44 56 47 49 53 47 43 42 43 45 50 43 40 38 31 30 33 32 29 29 30 29 30 25 24 24 27 28 29 26 25
9 8 14 18 26 15 17 13 19 27 22 24 33 31 36 43 52 51 44 41 44 41 43 42 38 41 35 34 34 34 32 30 29 29 29 29 28 24 22 24 25 23 23 23 24
5 10 13 14 19 17 18 17 22 19 18 24 30 40 41 33 43 45 43 42 45 37 39 37 34 35 35 36 36 32 30 29 28 28 28 27 23 19 18 19 19 19 20 22 23
10 7 8 8 16 17 16 14 12 14 18 18 30 34 29 43 42 51 48 43 47 39 39 36 36 36 36 36 32 30 28 26 26 25 20 19 15 15 16 18 20 20 22 23 25
10 5 6 7 11 18 11 13 15 15 17 25 30 32 41 42 39 43 41 45 38 36 41 38 35 34 32 31 31 28 27 26 22 18 15 13 14 18 20 23 23 23 22 22 23
5 5 6 6 8 16 16 14 16 16 23 22 22 32 38 36 33 35 35 37 33 31 32 32 32 33 34 32 29 26 24 21 20 18 15 15 16 20 22 23 23 23 23 26 31
3 4 10 9 11 15 12 12 11 20 18 19 19 26 33 36 36 35 39 35 30 30 30 30 29 26 22 19 21 22 21 20 18 16 16 13 18 19 23 24 23 24 27 29 31
2 2 12 12 10 12 15 12 14 18 22 18 20 23 23 23 34 34 32 32 29 28 27 26 23 22 23 23 22 21 20 19 16 19 17 18 17 24 25 21 20 24 27 30 32
5 1 11 13 10 8 11 12 14 17 20 21 19 18 15 20 26 30 31 29 28 30 25 21 22 19 20 19 18 18 19 19 19 21 19 20 16 23 20 23 25 27 30 33 35
12 6 7 11 11 12 13 12 13 15 15 18 16 18 17 16 18 23 23 27 29 33 34 36 30 29 25 21 19 20 20 20 21 21 20 15 17 19 21 24 28 30 33 37 41
Wind_Direction
300 296 283 270 261 254 247 246 243 238 235 232 228 229 230 228 225 224 221 221 225 224 225 226 224 222 222 225 221 222 229 228 227 239 241 231 219 218 212 217 213 218 227 224 233
313 304 294 273 260 258 254 247 240 237 234 230 226 225 227 228 227 222 219 219 222 223 225 224 225 222 219 222 223 222 227 230 230 243 247 238 232 212 229 225 219 225 232 235 244
323 318 311 279 269 263 257 252 242 234 233 229 224 221 222 225 225 223 221 219 222 221 224 222 225 225 218 217 222 225 223 230 232 245 243 241 234 226 235 246 228 228 246 250 241
332 331 327 287 276 270 259 255 247 238 228 226 223 220 218 221 222 218 218 216 219 219 221 221 224 227 226 223 225 227 224 229 235 242 240 234 233 225 233 240 235 230 230 249 252
341 342 328 298 280 275 259 255 253 241 228 222 220 218 216 215 217 215 213 214 216 215 217 220 224 225 226 224 229 226 233 227 232 242 243 227 231 232 233 236 241 239 242 256 260
346 343 339 301 289 271 261 256 245 229 227 220 217 217 213 210 214 214 212 212 216 214 213 217 220 222 223 226 232 227 230 228 228 240 241 225 228 227 240 237 237 244 251 257 259
347 347 341 319 329 314 279 254 235 229 216 215 214 216 210 204 215 210 209 211 213 214 214 213 219 222 223 229 232 229 230 232 231 233 241 228 224 230 239 244 246 249 261 258 265
347 350 341 340 334 338 332 253 219 213 214 208 209 212 205 204 210 207 206 208 210 211 211 209 216 220 221 226 230 229 229 233 232 231 238 239 224 235 240 246 253 260 252 261 271
351 350 347 349 320 21 11 11 193 198 206 201 206 208 200 204 206 205 203 206 208 208 209 213 216 218 216 222 224 225 223 231 231 229 232 234 228 236 245 251 255 263 265 258 258
357 350 347 354 353 335 20 2 99 163 189 190 198 203 198 200 203 204 202 203 203 206 211 216 220 222 219 218 222 223 225 230 231 227 230 227 224 235 255 265 278 277 266 266 268
7 9 1 16 12 25 70 42 170 206 172 191 196 201 198 196 200 201 200 202 201 207 210 213 215 221 219 217 214 222 220 228 228 228 232 237 242 249 262 267 265 267 260 264 266
12 12 41 59 64 64 62 38 246 177 183 190 192 186 192 196 199 200 199 202 203 206 208 213 222 220 217 215 215 221 220 227 229 230 234 242 243 252 264 261 259 261 260 257 259
22 19 45 56 69 76 83 126 142 180 184 174 171 175 187 194 197 200 201 202 205 209 212 218 215 213 228 219 222 221 219 233 236 234 233 239 244 254 259 264 265 264 258 254 252
33 25 29 21 29 62 77 69 64 81 143 150 132 163 177 186 192 199 200 205 208 210 213 218 217 220 229 226 227 228 226 235 237 238 234 238 243 251 257 261 259 263 257 255 258
17 20 16 37 29 53 70 83 80 89 114 122 126 121 138 177 187 192 192 209 210 214 215 217 216 215 221 224 230 223 222 233 238 242 238 245 246 250 259 263 261 260 262 263 268
20 23 22 19 14 48 80 104 106 128 135 139 136 135 158 167 179 172 182 196 204 210 211 216 214 217 222 225 224 216 221 234 240 244 237 248 251 252 255 255 255 258 262 266 270
19 23 30 32 26 59 86 96 113 137 159 135 142 140 163 163 154 167 177 178 198 203 202 207 206 212 216 214 214 215 222 234 241 245 243 248 255 256 259 257 253 256 259 262 265
24 10 26 34 28 63 85 83 124 134 145 161 155 143 154 152 159 176 182 183 188 197 205 202 207 198 207 211 216 222 227 237 244 252 250 253 259 259 257 255 253 254 257 260 264
25 7 9 44 40 57 79 83 124 149 138 144 155 153 153 160 165 174 169 175 189 188 186 185 203 204 205 212 214 216 224 237 242 249 248 252 255 254 252 247 246 249 255 264 270
30 31 33 53 56 49 70 86 99 125 150 149 159 164 170 167 170 169 174 178 178 181 186 190 196 202 206 208 211 216 222 232 241 245 248 251 254 253 247 250 251 254 265 277 290
57 39 38 56 60 50 59 90 100 102 128 146 170 160 156 165 164 168 173 176 180 185 189 190 197 201 205 208 214 220 228 234 235 241 242 245 254 257 260 264 268 269 275 281 282
43 33 46 83 56 78 63 120 99 105 132 122 134 155 160 157 161 169 179 185 178 187 186 189 191 198 205 209 215 216 218 225 231 233 236 248 260 261 265 271 274 280 283 284 285
34 40 136 109 86 78 75 94 112 127 139 156 146 157 160 171 174 180 179 177 172 174 177 184 190 195 196 205 210 213 219 223 229 235 243 252 262 262 268 273 280 287 292 291 288
15 34 139 132 110 93 85 84 108 123 148 144 156 163 178 183 188 179 174 162 163 173 181 185 192 196 199 206 212 214 222 227 233 242 242 249 250 264 265 271 288 295 292 291 293
238 72 151 145 129 109 100 111 118 116 128 142 145 149 163 163 173 161 158 162 175 178 178 183 187 189 193 202 209 212 223 230 232 237 244 238 253 261 271 291 285 282 287 293 299
231 167 171 171 166 142 127 121 135 133 122 125 135 142 156 168 162 168 168 174 186 188 191 180 195 202 199 204 211 216 225 229 236 241 239 243 238 273 274 284 288 292 298 300 301
222 212 190 183 176 157 144 146 150 163 159 141 142 146 157 172 182 185 185 194 197 198 203 200 211 212 218 223 223 225 237 237 243 249 253 256 252 264 278 284 292 296 299 303 306
Height
5677 5669 5663 5658 5654 5653 5655 5660 5666 5676 5684 5695 5707 5717 5727 5736 5746 5757 5766 5783 5786 5791 5797 5801 5806 5809 5813 5816 5822 5826 5830 5831 5833 5833 5832 5834 5836 5838 5839 5843 5846 5848 5849 5850 5854
5662 5654 5647 5640 5635 5634 5635 5639 5647 5655 5665 5677 5691 5703 5713 5722 5732 5744 5764 5772 5777 5784 5791 5796 5800 5802 5807 5811 5817 5822 5826 5828 5829 5830 5831 5833 5834 5842 5844 5843 5844 5846 5848 5849 5851
5649 5639 5630 5622 5618 5617 5616 5619 5627 5636 5646 5658 5673 5686 5696 5706 5719 5742 5755 5765 5771 5778 5784 5789 5791 5796 5802 5807 5814 5818 5823 5825 5826 5827 5829 5830 5834 5839 5841 5842 5841 5843 5845 5847 5850
5638 5627 5616 5610 5607 5603 5601 5602 5608 5617 5627 5640 5653 5667 5680 5693 5711 5727 5741 5754 5761 5769 5776 5782 5785 5792 5801 5806 5809 5813 5817 5821 5822 5824 5827 5828 5832 5835 5838 5839 5838 5841 5842 5843 5845
5628 5615 5606 5600 5594 5590 5588 5590 5593 5600 5610 5622 5635 5649 5663 5686 5704 5718 5732 5745 5749 5760 5768 5776 5781 5790 5796 5801 5802 5810 5813 5816 5819 5822 5825 5826 5829 5832 5836 5835 5835 5837 5839 5841 5842
5620 5608 5599 5592 5586 5582 5579 5579 5580 5586 5594 5606 5619 5631 5655 5679 5693 5708 5725 5735 5742 5755 5762 5768 5779 5785 5789 5794 5797 5806 5809 5813 5816 5816 5820 5824 5826 5830 5831 5829 5834 5835 5837 5837 5838
5616 5605 5595 5587 5580 5575 5570 5568 5568 5575 5581 5592 5606 5620 5645 5678 5675 5699 5715 5726 5735 5750 5759 5769 5773 5777 5785 5788 5793 5801 5806 5808 5811 5814 5817 5820 5825 5825 5825 5829 5832 5833 5833 5834 5836
5613 5603 5592 5584 5577 5572 5566 5562 5561 5566 5573 5582 5597 5612 5637 5664 5665 5689 5705 5717 5728 5743 5753 5759 5761 5770 5778 5782 5789 5796 5801 5804 5806 5812 5814 5818 5822 5822 5823 5826 5828 5828 5829 5833 5833
5611 5600 5591 5583 5576 5571 5566 5562 5560 5563 5570 5580 5589 5605 5633 5635 5661 5683 5700 5713 5726 5738 5747 5751 5757 5763 5771 5778 5785 5791 5797 5800 5803 5807 5811 5815 5817 5819 5821 5824 5825 5825 5826 5829 5829
5613 5601 5592 5583 5576 5570 5567 5565 5564 5565 5570 5577 5585 5596 5617 5642 5658 5676 5694 5706 5720 5732 5738 5745 5751 5758 5765 5773 5782 5790 5792 5797 5800 5805 5809 5812 5814 5815 5817 5821 5822 5822 5823 5823 5823
5616 5606 5594 5586 5579 5574 5571 5570 5572 5571 5573 5578 5585 5599 5614 5630 5648 5669 5686 5700 5712 5721 5731 5740 5748 5753 5765 5776 5780 5780 5787 5793 5798 5801 5805 5810 5812 5812 5813 5818 5818 5818 5818 5818 5818
5620 5610 5599 5589 5582 5577 5575 5575 5575 5577 5577 5579 5583 5594 5609 5627 5645 5663 5679 5693 5704 5717 5726 5734 5739 5755 5764 5768 5773 5777 5784 5790 5794 5797 5802 5806 5808 5809 5810 5813 5814 5813 5814 5814 5814
5622 5614 5606 5596 5589 5580 5578 5578 5576 5576 5575 5579 5583 5593 5607 5625 5644 5661 5677 5689 5706 5714 5724 5733 5745 5754 5759 5767 5768 5774 5783 5788 5790 5793 5796 5800 5804 5806 5807 5807 5808 5808 5810 5809 5810
5626 5619 5609 5602 5599 5590 5583 5583 5581 5578 5582 5583 5591 5599 5609 5627 5644 5659 5675 5688 5698 5710 5722 5731 5744 5748 5755 5762 5766 5774 5781 5784 5785 5787 5791 5796 5800 5802 5803 5803 5802 5804 5806 5805 5805
5631 5624 5615 5609 5605 5602 5597 5594 5595 5594 5596 5597 5602 5609 5617 5629 5646 5659 5673 5683 5697 5707 5718 5728 5734 5741 5749 5761 5765 5774 5776 5779 5781 5784 5788 5791 5795 5799 5800 5798 5798 5800 5801 5801 5801
5636 5629 5621 5614 5613 5608 5605 5604 5605 5606 5605 5606 5610 5616 5625 5633 5643 5660 5673 5685 5695 5704 5714 5721 5734 5741 5752 5757 5763 5768 5772 5775 5776 5779 5784 5785 5789 5796 5795 5794 5794 5794 5796 5796 5795
5640 5635 5628 5622 5618 5615 5612 5609 5611 5610 5613 5614 5617 5623 5629 5636 5646 5661 5671 5678 5687 5695 5706 5717 5727 5737 5745 5752 5758 5763 5767 5770 5772 5775 5781 5781 5784 5791 5791 5789 5788 5789 5790 5790 5788
5642 5640 5636 5629 5623 5620 5617 5615 5616 5616 5620 5620 5624 5628 5636 5644 5652 5663 5671 5680 5687 5698 5708 5715 5724 5733 5742 5749 5757 5761 5764 5767 5768 5772 5776 5776 5778 5783 5784 5783 5782 5784 5784 5781 5780
5644 5643 5640 5635 5629 5627 5624 5621 5621 5622 5624 5627 5627 5633 5638 5646 5654 5662 5674 5683 5690 5697 5707 5713 5724 5733 5741 5748 5752 5755 5759 5763 5765 5767 5770 5771 5773 5775 5777 5777 5778 5780 5778 5775 5774
5646 5645 5643 5640 5635 5634 5632 5627 5626 5627 5629 5633 5636 5637 5644 5649 5659 5667 5675 5684 5691 5700 5709 5718 5726 5732 5739 5743 5747 5752 5755 5758 5760 5764 5765 5765 5767 5771 5771 5771 5773 5773 5772 5769 5768
5648 5647 5645 5643 5641 5639 5637 5635 5632 5632 5633 5635 5641 5647 5650 5656 5664 5668 5676 5685 5693 5701 5709 5716 5725 5731 5735 5739 5745 5749 5751 5754 5757 5760 5761 5762 5764 5765 5766 5767 5766 5765 5764 5763 5761
5649 5649 5647 5646 5646 5642 5642 5641 5639 5638 5639 5641 5644 5652 5657 5661 5667 5676 5682 5688 5695 5702 5709 5716 5722 5727 5735 5739 5741 5743 5747 5750 5753 5758 5757 5758 5760 5759 5760 5758 5758 5758 5758 5756 5754
5649 5650 5648 5648 5648 5647 5647 5647 5645 5645 5646 5648 5652 5656 5662 5667 5672 5678 5685 5692 5696 5703 5709 5715 5721 5725 5729 5734 5737 5741 5745 5747 5751 5752 5754 5755 5756 5753 5753 5751 5750 5750 5750 5749 5746
5650 5650 5650 5651 5651 5650 5650 5652 5652 5650 5652 5654 5658 5661 5666 5670 5675 5680 5685 5691 5699 5705 5710 5715 5719 5725 5731 5736 5738 5740 5742 5744 5747 5749 5750 5751 5748 5748 5745 5745 5745 5744 5742 5739 5738
5650 5651 5652 5652 5653 5653 5654 5656 5656 5657 5658 5661 5664 5667 5670 5674 5678 5682 5688 5695 5701 5706 5710 5716 5720 5723 5725 5729 5733 5735 5738 5740 5742 5742 5744 5744 5744 5738 5738 5740 5739 5736 5733 5731 5729
5650 5652 5653 5654 5655 5655 5657 5659 5661 5662 5664 5666 5669 5670 5672 5675 5681 5686 5690 5696 5701 5705 5709 5712 5716 5720 5724 5728 5730 5732 5733 5734 5735 5736 5737 5737 5738 5734 5734 5732 5731 5729 5726 5723 5719
5650 5652 5654 5655 5657 5658 5659 5661 5663 5665 5667 5669 5672 5674 5677 5680 5682 5686 5690 5694 5698 5702 5705 5710 5713 5717 5721 5722 5723 5726 5726 5728 5728 5729 5730 5732 5731 5730 5730 5727 5724 5721 5718 5714 5709